User: anonymous   Login
Location: Hepcat Sky Observatory
(29.9800°N, 95.6500°W)
Time: 00:46:06
(UTC-05:00)
Language:

Cosmos 1602 Rocket - Orbit

View from above orbital plane
View from above orbital plane
View from above satellite
View from above satellite

Ground track
Ground track

The orbit data is extracted from the following two-line orbital elements,

1 15332U 84105B   15212.19634484  .00000201  00000-0  21569-4 0  9992
2 15332 082.5358 110.1531 0022696 113.7365 358.5139 14.83113006664759
Epoch (UTC): 31 July 2015 04:42:44
Eccentricity: 0.0022696
inclination: 82.5358°
perigee height: 603 km
apogee height: 635 km
right ascension of ascending node: 110.1531°
argument of perigee: 113.7365°
revolutions per day: 14.83113006
mean anomaly at epoch: 358.5139°
orbit number at epoch: 66475

The dashed part of the orbit path shows where the satellite is in the earth's shadow,  

DLR